BEIDOU IGSO-7

Last updated on Sun Feb 19 2023 00:02:47 GMT+0000 (Coordinated Universal Time)

1 43539U 18057A 23049.61032538 -.00000165 00000+0 00000+0 0 9992 2 43539 55.1036 173.5688 0056457 228.1163 77.1918 1.00291219 16975
UTC large
Height (km)
Speed (km/s)
/
Latitude / Longitude
Inclination (degrees)
Orbital Period (minutes)
Azimuth
Elevation
Range (km)
Doppler Factor

Next 0 passes for location: London (51.5072 / 0.1276)

Sorry there are no passes over London.